Location: Black Forest
(43.4794°N, 75.0081°W)
Time: 17:44:35
(UTC-04:00)

ISS - Visible Passes

Search period start: 31 August 2016 00:00
Search period end: 10 September 2016 00:00
Orbit: 402 x 406 km, 51.6° (Epoch: 31 August)

Date Brightness Start Highest point End Pass type
(mag) Time Alt. Az. Time Alt. Az. Time Alt. Az.
04 Sep -1.1 05:34:38 10° S 05:37:09 20° SE 05:39:40 10° E visible
05 Sep -0.5 04:43:54 10° SSE 04:44:55 11° SE 04:45:56 10° ESE visible
06 Sep -2.5 05:26:00 15° SSW 05:28:29 46° SE 05:31:39 10° ENE visible
07 Sep -1.6 04:35:53 24° SE 04:36:08 25° SE 04:38:54 10° E visible
08 Sep -3.4 05:18:20 28° WSW 05:19:56 80° NNW 05:23:14 10° NE visible
09 Sep -2.4 04:28:05 47° E 04:28:05 47° E 04:30:43 10° ENE visible
09 Sep -1.9 06:01:11 10° W 06:04:06 29° NNW 06:07:03 10° NE visible
